[[{"header":{"parameterUnit":"m.s-1","parameterCategory":1,"la1":30.2991,"la2":30.254,"lo1":-89.0895,"lo2":-89.0444,"dy":0.0017,"dx":0.0017,"nx":28,"ny":28,"refTime":"2023-08-01T09:00:00:Z","depth":0,"parameterNumber":2,"parameterNumberName":"U-component_of_WINDS"},"data":[0,0,0,0,0,0,0,0,0,0,0,0,0,0,0,0,0,0,0,0,0,0,0,0,0,0,0,0,0,0,0,0,0,0,0,0,0,0,0,0,0,0,0,0,0,0,0,0,0,0,0,0,0,0,0,0,0,0,1.6966,1.6967,0,1.7088,1.7089,1.709,1.7098,1.7096,1.7095,1.7094,1.7219,1.7223,1.7228,0,0,0,0,0,0,0,0,0,0,0,0,0,1.674,1.6744,1.6966,1.6967,1.6969,1.7087,1.7089,1.7091,1.7098,1.7096,1.7095,1.7093,1.7217,1.7223,1.7228,0,0,0,0,0,0,0,0,0,0,0,0,0,1.6848,1.6746,1.6966,1.6987,1.699,1.7087,1.7089,1.7091,1.7098,1.7096,1.7094,1.7092,1.7216,1.7222,1.7229,1.7313,0,0,1.725,1.7253,0,0,0,0,0,0,0,0,1.6842,1.6856,1.6982,1.6986,1.6989,1.7075,1.7055,1.7166,1.7099,1.7057,1.7094,1.7091,1.7173,1.7183,1.7211,1.7319,1.7325,1.7251,1.7255,1.7258,1.726,0,0,0,0,0,0,0,1.6834,1.6851,1.7014,1.6984,1.6988,1.699,1.7003,1.7076,1.7125,1.7061,1.7062,1.7076,1.7174,1.7204,1.7214,1.7327,1.7251,1.7257,1.7261,1.7264,1.751,1.7512,0,0,0,0,0,0,1.6823,1.6845,1.701,1.7018,1.6909,1.6996,1.7011,1.705,1.7124,1.7134,1.7077,1.7076,1.7193,1.7205,1.7218,1.7321,1.7258,1.7265,1.7269,1.7508,1.7511,1.7513,0,0,0,0,0,0,1.6818,1.6837,1.7005,1.6931,1.6953,1.7002,1.7046,1.7053,1.7083,1.7137,1.7146,1.7099,1.7192,1.7208,1.729,1.7326,1.7268,1.7274,1.7505,1.7509,1.7512,1.7528,0,0,0,0,0,0,1.6811,1.6836,1.6868,1.6932,1.6957,1.7075,1.7048,1.7057,1.7095,1.7093,1.7159,1.7168,1.7192,1.7279,1.7296,1.7334,1.7279,1.7502,1.7507,1.7511,1.7525,1.7532,1.7538,0,0,0,0,0,1.6803,1.6868,1.687,1.689,1.6998,1.7077,1.7091,1.7116,1.7097,1.7131,1.7165,1.7166,1.7319,1.7287,1.7307,1.7347,1.75,1.7505,1.751,1.7522,1.753,1.7538,0,0,0,0,0,0,1.6807,1.6877,1.6879,1.6967,1.7016,1.7078,1.712,1.7125,1.718,1.7177,1.7206,1.7221,1.7301,1.7333,1.7296,1.7432,1.7407,1.7417,1.7409,1.7418,1.7424,1.7415,1.7285,0,0,0,0,0,1.6818,1.6876,1.6934,1.7005,1.703,1.7071,1.7106,1.7121,1.7173,1.7194,1.7235,1.7285,1.7345,1.7383,1.7441,1.7529,1.7544,1.7567,1.7573,1.7579,1.7586,1.7635,1.7646,1.7531,1.7531,1.7531,0,0,1.6842,1.6887,1.6921,1.7007,1.7047,1.7106,1.7088,1.7151,1.7195,1.7204,1.7282,1.7314,1.7373,1.7458,1.7497,1.7486,1.7621,1.7585,1.7589,1.7594,1.7641,1.7652,1.7662,1.7534,1.7534,1.7533,0,0,1.6914,1.6955,1.7018,1.7058,1.7118,1.7145,1.716,1.7222,1.7243,1.7323,1.733,1.7383,1.7485,1.7526,1.756,1.7648,1.7651,1.7666,1.7701,1.7748,1.7757,1.7765,1.7796,1.7807,1.7674,1.7674,1.7674,0,1.6936,1.7025,1.705,1.7114,1.7151,1.7161,1.7225,1.7263,1.7339,1.7365,1.7351,1.7479,1.7519,1.7613,1.7635,1.7662,1.768,1.7658,1.7754,1.7762,1.777,1.78,1.7811,1.7675,1.7675,1.7675,1.7675,0,1.7048,1.7109,1.7154,1.7226,1.7269,1.7332,1.7368,1.7407,1.7419,1.7447,1.7528,1.7577,1.7644,1.7668,1.768,1.7764,1.7755,1.7747,1.7723,1.7782,1.781,1.7822,1.7677,1.7677,1.7676,1.7676,0,0,1.7127,1.7212,1.7228,1.7261,1.7328,1.7376,1.744,1.7505,1.7538,1.7591,1.7645,1.7731,1.7724,1.7762,1.778,1.7821,1.7887,1.7808,1.781,1.782,1.7982,1.7987,1.7999,1.7889,1.7891,1.7893,1.7977,0,1.7206,1.7319,1.7344,1.7442,1.7499,1.7509,1.7565,1.7612,1.764,1.7692,1.7724,1.7784,1.777,1.7794,1.7835,1.787,1.7919,1.7864,1.7939,1.7942,1.7924,1.8014,1.802,1.8096,1.7988,1.799,1.7991,0,1.7314,1.7368,1.7471,1.753,1.7555,1.7604,1.7666,1.7716,1.777,1.7787,1.783,1.7843,1.791,1.7882,1.7974,1.7936,1.7969,1.7991,1.7994,1.8002,1.7969,1.8023,1.8121,1.8132,1.8009,1.8008,1.8006,0,1.736,1.7459,1.7533,1.7561,1.7631,1.7666,1.7697,1.7748,1.7786,1.784,1.7865,1.7926,1.796,1.8007,1.8036,1.8013,1.8126,1.8101,1.8143,1.8142,1.8165,1.8163,1.8269,1.8187,1.8187,1.8187,1.8187,0,1.7446,1.7508,1.7554,1.76,1.767,1.7698,1.7767,1.7798,1.7844,1.7896,1.7909,1.7957,1.7993,1.8046,1.807,1.8142,1.8158,1.8174,1.8179,1.8172,1.817,1.8193,1.8188,1.819,1.8189,1.8189,1.8188,0,1.7509,1.7542,1.7624,1.7684,1.77,1.7749,1.7801,1.7846,1.7874,1.7939,1.7956,1.8001,1.8065,1.8098,1.8178,1.8193,1.8275,1.8278,1.8257,1.8259,1.8298,1.8293,1.8422,1.844,1.8346,1.8347,1.8348,0,1.7561,1.7609,1.7674,1.771,1.7741,1.7798,1.7836,1.7866,1.7905,1.797,1.8007,1.8071,1.8124,1.8225,1.8265,1.8326,1.833,1.837,1.8339,1.833,1.833,1.8326,1.8331,1.8376,1.8376,1.8377,1.8378,0,1.765,1.7664,1.7718,1.7779,1.7824,1.7873,1.7921,1.7949,1.7987,1.803,1.8095,1.8136,1.8217,1.8281,1.8345,1.8377,1.8384,1.8387,1.84,1.8393,1.8379,1.8387,1.8271,1.8384,1.8384,1.8383,1.8383,1.8382,1.7709,1.7752,1.7804,1.7864,1.7904,1.7948,1.7993,1.8027,1.8081,1.8149,1.8163,1.8232,1.8284,1.837,1.8405,1.8459,1.8451,1.8469,1.8474,1.8478,1.8479,1.8371,1.8471,1.8471,1.8471,1.847,1.847,0,1.7798,1.7832,1.7887,1.7954,1.8001,1.8003,1.8056,1.8095,1.8155,1.8203,1.8255,1.8329,1.8391,1.8435,1.8498,1.8533,1.8537,1.8548,1.8546,1.8553,1.8483,1.8466,1.8543,1.8543,1.8543,1.8543,1.8543,1.8543,1.785,1.7922,1.7942,1.8035,1.8068,1.8135,1.8165,1.8207,1.8245,1.8327,1.8378,1.8406,1.8453,1.8519,1.8576,1.8587,1.861,1.862,1.8632,1.8566,1.8558,1.8551,1.8534,1.8625,1.8625,1.8697,1.8698,1.8698]},{"header":{"parameterUnit":"m.s-1","parameterCategory":1,"la1":30.2991,"la2":30.254,"lo1":-89.0895,"lo2":-89.0444,"dy":0.0017,"dx":0.0017,"nx":28,"ny":28,"refTime":"2023-08-01T09:00:00:Z","depth":0,"parameterNumber":3,"parameterNumberName":"V-component_of_WINDS"},"data":[0,0,0,0,0,0,0,0,0,0,0,0,0,0,0,0,0,0,0,0,0,0,0,0,0,0,0,0,0,0,0,0,0,0,0,0,0,0,0,0,0,0,0,0,0,0,0,0,0,0,0,0,0,0,0,0,0,0,-0.4795,-0.4795,0,-0.4823,-0.4823,-0.4824,-0.4879,-0.488,-0.4881,-0.4882,-0.4911,-0.491,-0.491,0,0,0,0,0,0,0,0,0,0,0,0,0,-0.4789,-0.4788,-0.4795,-0.4795,-0.4795,-0.4823,-0.4823,-0.4824,-0.4879,-0.488,-0.4882,-0.4883,-0.4911,-0.491,-0.491,0,0,0,0,0,0,0,0,0,0,0,0,0,-0.4801,-0.4788,-0.4795,-0.4826,-0.4829,-0.4823,-0.4823,-0.4824,-0.4879,-0.488,-0.4882,-0.4884,-0.4911,-0.4911,-0.491,-0.4875,0,0,-0.4909,-0.4909,0,0,0,0,0,0,0,0,-0.4801,-0.4802,-0.4821,-0.4824,-0.4828,-0.4849,-0.4832,-0.4841,-0.4878,-0.486,-0.4882,-0.4884,-0.4889,-0.489,-0.4892,-0.4876,-0.4877,-0.4909,-0.4909,-0.4908,-0.4908,0,0,0,0,0,0,0,-0.48,-0.4801,-0.4806,-0.4822,-0.4825,-0.4839,-0.4843,-0.4834,-0.4865,-0.4862,-0.4866,-0.4868,-0.4891,-0.4892,-0.4893,-0.4878,-0.4909,-0.4909,-0.4908,-0.4908,-0.4836,-0.4834,0,0,0,0,0,0,-0.4794,-0.48,-0.4805,-0.4807,-0.4818,-0.4838,-0.4842,-0.4841,-0.4865,-0.487,-0.4867,-0.4871,-0.4892,-0.4894,-0.4894,-0.4855,-0.4908,-0.4908,-0.4908,-0.4838,-0.4836,-0.4834,0,0,0,0,0,0,-0.4794,-0.4794,-0.4804,-0.4804,-0.4807,-0.4836,-0.4834,-0.484,-0.4842,-0.4869,-0.4875,-0.4863,-0.4894,-0.4895,-0.488,-0.4857,-0.4908,-0.4908,-0.484,-0.4837,-0.4835,-0.4776,0,0,0,0,0,0,-0.4793,-0.4794,-0.478,-0.4804,-0.4806,-0.4788,-0.4833,-0.484,-0.4841,-0.4846,-0.4867,-0.4872,-0.4895,-0.488,-0.4879,-0.4857,-0.4907,-0.4842,-0.4838,-0.4835,-0.478,-0.4772,-0.4765,0,0,0,0,0,-0.4793,-0.4762,-0.4779,-0.478,-0.479,-0.4787,-0.4788,-0.4816,-0.4839,-0.4826,-0.4844,-0.4871,-0.486,-0.4878,-0.4878,-0.4855,-0.4843,-0.4839,-0.4836,-0.4784,-0.4774,-0.4765,0,0,0,0,0,0,-0.4735,-0.4766,-0.4785,-0.4761,-0.4771,-0.4796,-0.4781,-0.4804,-0.4808,-0.4813,-0.4847,-0.4851,-0.4831,-0.4842,-0.4862,-0.4823,-0.4856,-0.4852,-0.4817,-0.4807,-0.48,-0.4797,-0.4907,0,0,0,0,0,-0.472,-0.4714,-0.4742,-0.4718,-0.4722,-0.475,-0.475,-0.4771,-0.4782,-0.4786,-0.4803,-0.4813,-0.4812,-0.481,-0.4811,-0.4783,-0.4788,-0.4767,-0.476,-0.4753,-0.4749,-0.4736,-0.4727,-0.4821,-0.4821,-0.4821,0,0,-0.4687,-0.4704,-0.4698,-0.4707,-0.4717,-0.471,-0.4753,-0.4745,-0.474,-0.4785,-0.4772,-0.4784,-0.4798,-0.4776,-0.4767,-0.4784,-0.4724,-0.4748,-0.4743,-0.4742,-0.4731,-0.4722,-0.4714,-0.4819,-0.4819,-0.482,0,0,-0.4625,-0.4637,-0.4619,-0.4628,-0.4643,-0.4663,-0.4658,-0.468,-0.4691,-0.4678,-0.4711,-0.4707,-0.4704,-0.4713,-0.4717,-0.466,-0.4685,-0.4659,-0.4619,-0.4605,-0.4598,-0.4591,-0.4571,-0.4563,-0.4655,-0.4655,-0.4655,0,-0.4583,-0.4575,-0.4606,-0.4596,-0.4599,-0.464,-0.4622,-0.463,-0.4644,-0.4645,-0.4664,-0.4662,-0.4674,-0.4655,-0.4642,-0.4644,-0.464,-0.4656,-0.4596,-0.459,-0.4585,-0.4566,-0.4558,-0.4652,-0.4652,-0.4652,-0.4653,0,-0.4523,-0.4517,-0.45,-0.4513,-0.4515,-0.45,-0.453,-0.4527,-0.4549,-0.4566,-0.4553,-0.4569,-0.4574,-0.4571,-0.4591,-0.4556,-0.4566,-0.459,-0.4624,-0.4572,-0.4555,-0.4547,-0.4647,-0.4648,-0.4649,-0.465,0,0,-0.4423,-0.4455,-0.4449,-0.4455,-0.4476,-0.4472,-0.446,-0.4465,-0.4462,-0.4471,-0.4462,-0.446,-0.4483,-0.4487,-0.4509,-0.4497,-0.4452,-0.4524,-0.4524,-0.4509,-0.4413,-0.4394,-0.4385,-0.4469,-0.4468,-0.4467,-0.4412,0,-0.4365,-0.4346,-0.4375,-0.435,-0.4345,-0.4385,-0.4374,-0.4386,-0.4402,-0.4401,-0.4419,-0.4417,-0.4447,-0.445,-0.4441,-0.4459,-0.4433,-0.4464,-0.4461,-0.446,-0.4455,-0.4376,-0.4356,-0.4304,-0.4406,-0.4405,-0.4404,0,-0.4295,-0.4301,-0.4275,-0.4298,-0.4297,-0.4287,-0.4295,-0.4293,-0.4307,-0.432,-0.4326,-0.4352,-0.4342,-0.4375,-0.4363,-0.4383,-0.4384,-0.4393,-0.4392,-0.4392,-0.4428,-0.4374,-0.4288,-0.428,-0.4393,-0.4394,-0.4395,0,-0.4225,-0.4227,-0.4212,-0.4216,-0.4243,-0.4235,-0.4246,-0.4262,-0.4263,-0.427,-0.4272,-0.4277,-0.428,-0.4284,-0.4311,-0.4333,-0.4295,-0.4331,-0.4306,-0.4305,-0.4295,-0.4295,-0.4207,-0.4296,-0.4296,-0.4297,-0.4297,0,-0.4157,-0.4139,-0.4181,-0.4171,-0.4153,-0.4187,-0.4168,-0.4183,-0.4197,-0.4192,-0.4227,-0.4221,-0.4257,-0.4256,-0.4277,-0.4264,-0.4265,-0.4275,-0.4281,-0.4271,-0.427,-0.4272,-0.4276,-0.4295,-0.4295,-0.4295,-0.4296,0,-0.4075,-0.4102,-0.4088,-0.4115,-0.4121,-0.4106,-0.4129,-0.4122,-0.4142,-0.4134,-0.4134,-0.4165,-0.4164,-0.4193,-0.4198,-0.4213,-0.419,-0.4203,-0.4185,-0.4189,-0.4162,-0.4164,-0.4071,-0.4061,-0.4157,-0.4156,-0.4155,0,-0.4029,-0.4017,-0.4042,-0.4041,-0.405,-0.4048,-0.405,-0.4083,-0.4084,-0.41,-0.4091,-0.4094,-0.4098,-0.4096,-0.4119,-0.4123,-0.4136,-0.4104,-0.4137,-0.4128,-0.4135,-0.4136,-0.4135,-0.4096,-0.4095,-0.4094,-0.4093,0,-0.3945,-0.3959,-0.3961,-0.3968,-0.397,-0.3976,-0.3985,-0.3983,-0.4019,-0.4018,-0.4019,-0.4022,-0.4028,-0.4031,-0.404,-0.4051,-0.4078,-0.4083,-0.4077,-0.4067,-0.4057,-0.4062,-0.4165,-0.4084,-0.4085,-0.4086,-0.4086,-0.4087,-0.388,-0.3871,-0.3888,-0.3889,-0.39,-0.3907,-0.3902,-0.3921,-0.3922,-0.393,-0.395,-0.3947,-0.3963,-0.3978,-0.3987,-0.3986,-0.4003,-0.3994,-0.3992,-0.399,-0.3984,-0.4058,-0.3988,-0.3988,-0.3989,-0.3989,-0.3989,0,-0.3798,-0.3811,-0.3812,-0.3823,-0.3824,-0.385,-0.3862,-0.3861,-0.3859,-0.3871,-0.3875,-0.3876,-0.3879,-0.3902,-0.3908,-0.3903,-0.3915,-0.3903,-0.3903,-0.3906,-0.3969,-0.3974,-0.3893,-0.3893,-0.3893,-0.3893,-0.3893,-0.3893,-0.3755,-0.3741,-0.3758,-0.375,-0.3764,-0.3762,-0.3766,-0.3774,-0.3784,-0.3784,-0.3787,-0.3802,-0.3819,-0.3827,-0.3831,-0.3838,-0.3838,-0.3822,-0.3833,-0.3892,-0.3901,-0.391,-0.3914,-0.3822,-0.3822,-0.3769,-0.3769,-0.3768]}]]